TimeMDT,TemperatureF,Dew PointF,Humidity,Sea Level PressureIn,VisibilityMPH,Wind Direction,Wind SpeedMPH,Gust SpeedMPH,PrecipitationIn,Events,Conditions,WindDirDegrees,DateUTC
12:56 AM,21.9,17.1,82,30.31,-9999.0,NNW,15.0,-,N/A,,Unknown,340,2013-04-10 06:56:00
1:56 AM,21.9,17.1,82,30.32,-9999.0,NNW,10.4,-,N/A,,Unknown,330,2013-04-10 07:56:00
2:56 AM,21.9,18.0,85,30.31,-9999.0,NNW,12.7,-,N/A,,Unknown,330,2013-04-10 08:56:00
3:56 AM,21.0,17.1,85,30.30,-9999.0,NNW,11.5,-,N/A,,Unknown,330,2013-04-10 09:56:00
4:56 AM,19.9,16.0,85,30.30,-9999.0,NNW,11.5,-,N/A,,Unknown,340,2013-04-10 10:56:00
5:56 AM,19.9,16.0,85,30.30,-9999.0,NNW,12.7,-,N/A,,Unknown,330,2013-04-10 11:56:00
6:56 AM,19.9,16.0,85,30.31,-9999.0,NNW,8.1,-,N/A,,Unknown,330,2013-04-10 12:56:00
7:56 AM,21.9,17.1,82,30.31,-9999.0,NE,3.5,-,N/A,,Unknown,40,2013-04-10 13:56:00
8:56 AM,23.0,17.1,78,30.29,-9999.0,NNE,5.8,-,N/A,,Unknown,20,2013-04-10 14:56:00
9:56 AM,25.0,18.0,75,30.28,-9999.0,NNW,5.8,-,N/A,,Unknown,330,2013-04-10 15:56:00
10:56 AM,27.0,18.0,69,30.27,-9999.0,Calm,Calm,-,N/A,,Unknown,0,2013-04-10 16:56:00
11:56 AM,28.0,17.1,63,30.25,-9999.0,ENE,3.5,-,N/A,,Unknown,60,2013-04-10 17:56:00
12:56 PM,30.0,19.9,66,30.20,-9999.0,Variable,5.8,-,N/A,,Unknown,0,2013-04-10 18:56:00
1:56 PM,33.1,21.0,61,30.16,-9999.0,North,11.5,-,N/A,,Unknown,360,2013-04-10 19:56:00
2:56 PM,35.1,19.0,52,30.13,-9999.0,North,9.2,-,N/A,,Unknown,10,2013-04-10 20:56:00
3:56 PM,36.0,16.0,44,30.09,-9999.0,ESE,5.8,-,N/A,,Unknown,120,2013-04-10 21:56:00
4:56 PM,37.0,14.0,39,30.08,-9999.0,NE,9.2,-,N/A,,Unknown,50,2013-04-10 22:56:00
5:56 PM,35.1,14.0,42,30.07,-9999.0,NE,4.6,-,N/A,,Unknown,50,2013-04-10 23:56:00
6:56 PM,33.1,16.0,50,30.05,-9999.0,ENE,8.1,-,N/A,,Unknown,70,2013-04-11 00:56:00
7:56 PM,28.9,17.1,61,30.04,-9999.0,East,9.2,-,N/A,,Unknown,80,2013-04-11 01:56:00
8:56 PM,28.0,19.0,69,30.04,-9999.0,East,9.2,-,N/A,,Unknown,90,2013-04-11 02:56:00
9:56 PM,26.1,19.9,78,30.02,-9999.0,SSE,3.5,-,N/A,,Unknown,160,2013-04-11 03:56:00
10:56 PM,26.1,21.0,81,29.98,-9999.0,South,3.5,-,N/A,,Unknown,190,2013-04-11 04:56:00
11:56 PM,25.0,19.9,81,29.95,-9999.0,Calm,Calm,-,N/A,,Unknown,0,2013-04-11 05:56:00